Year,Month,Day,Hour,Minute,Value (Times are PST for temperature in C)
2006,10,29,00,00,11.60
2006,10,29,00,01,11.60
2006,10,29,00,02,11.60
2006,10,29,00,03,11.60
2006,10,29,00,04,11.60
2006,10,29,00,05,11.60
2006,10,29,00,06,11.60
2006,10,29,00,07,11.60
2006,10,29,00,08,11.60
2006,10,29,00,09,11.60
2006,10,29,00,10,11.60
2006,10,29,00,11,11.60
2006,10,29,00,12,11.60
2006,10,29,00,13,11.60
2006,10,29,00,14,11.60
2006,10,29,00,15,11.60
2006,10,29,00,16,11.60
2006,10,29,00,17,11.60
2006,10,29,00,18,11.60
2006,10,29,00,19,11.60
2006,10,29,00,20,11.60
2006,10,29,00,21,11.60
2006,10,29,00,22,11.60
2006,10,29,00,23,11.60
2006,10,29,00,24,11.70
2006,10,29,00,25,11.70
2006,10,29,00,26,11.70
2006,10,29,00,27,11.70
2006,10,29,00,28,11.70
2006,10,29,00,29,11.80
2006,10,29,00,30,11.80
2006,10,29,00,31,11.80
2006,10,29,00,32,11.80
2006,10,29,00,33,11.80
2006,10,29,00,34,11.80
2006,10,29,00,35,11.80
2006,10,29,00,36,11.80
2006,10,29,00,37,11.80
2006,10,29,00,38,11.80
2006,10,29,00,39,11.80
2006,10,29,00,40,11.80
2006,10,29,00,41,11.80
2006,10,29,00,42,11.90
2006,10,29,00,43,11.90
2006,10,29,00,44,12.00
2006,10,29,00,45,12.10
2006,10,29,00,46,12.10
2006,10,29,00,47,12.20
2006,10,29,00,48,12.30
2006,10,29,00,49,12.30
2006,10,29,00,50,12.30
2006,10,29,00,51,12.30
2006,10,29,00,52,12.40
2006,10,29,00,53,12.50
2006,10,29,00,54,12.50
2006,10,29,00,55,12.50
2006,10,29,00,56,12.50
2006,10,29,00,57,12.60
2006,10,29,00,58,12.60
2006,10,29,00,59,12.60
2006,10,29,01,00,12.60
2006,10,29,01,01,12.60
2006,10,29,01,02,12.60
2006,10,29,01,03,12.60
2006,10,29,01,04,12.60
2006,10,29,01,05,12.60
2006,10,29,01,06,12.60
2006,10,29,01,07,12.60
2006,10,29,01,08,12.60
2006,10,29,01,09,12.60
2006,10,29,01,10,12.50
2006,10,29,01,11,12.50
2006,10,29,01,12,12.50
2006,10,29,01,13,12.50
2006,10,29,01,14,12.50
2006,10,29,01,15,12.50
2006,10,29,01,16,12.60
2006,10,29,01,17,12.60
2006,10,29,01,18,12.60
2006,10,29,01,19,12.60
2006,10,29,01,20,12.60
2006,10,29,01,21,12.60
2006,10,29,01,22,12.50
2006,10,29,01,23,12.50
2006,10,29,01,24,12.50
2006,10,29,01,25,12.50
2006,10,29,01,26,12.40
2006,10,29,01,27,12.00
2006,10,29,01,28,11.70
2006,10,29,01,29,11.40
2006,10,29,01,30,11.00
2006,10,29,01,31,10.70
2006,10,29,01,32,10.40
2006,10,29,01,33,10.20
2006,10,29,01,34,10.00
2006,10,29,01,35,9.90
2006,10,29,01,36,9.80
2006,10,29,01,37,9.70
2006,10,29,01,38,9.60
2006,10,29,01,39,9.60
2006,10,29,01,40,9.50
2006,10,29,01,41,9.50
2006,10,29,01,42,9.40
2006,10,29,01,43,9.40
2006,10,29,01,44,9.40
2006,10,29,01,45,9.30
2006,10,29,01,46,9.30
2006,10,29,01,47,9.30
2006,10,29,01,48,9.30
2006,10,29,01,49,9.30
2006,10,29,01,50,9.30
2006,10,29,01,51,9.30
2006,10,29,01,52,9.30
2006,10,29,01,53,9.40
2006,10,29,01,54,9.40
2006,10,29,01,55,9.50
2006,10,29,01,56,9.50
2006,10,29,01,57,9.50
2006,10,29,01,58,9.60
2006,10,29,01,59,9.60
2006,10,29,02,00,9.20
2006,10,29,02,01,9.20
2006,10,29,02,02,9.20
2006,10,29,02,03,9.20
2006,10,29,02,04,9.20
2006,10,29,02,05,9.10
2006,10,29,02,06,9.10
2006,10,29,02,07,9.10
2006,10,29,02,08,9.10
2006,10,29,02,09,9.10
2006,10,29,02,10,9.10
2006,10,29,02,11,9.10
2006,10,29,02,12,9.00
2006,10,29,02,13,9.00
2006,10,29,02,14,9.00
2006,10,29,02,15,9.00
2006,10,29,02,16,9.00
2006,10,29,02,17,9.00
2006,10,29,02,18,9.00
2006,10,29,02,19,8.90
2006,10,29,02,20,8.90
2006,10,29,02,21,8.90
2006,10,29,02,22,8.90
2006,10,29,02,23,8.90
2006,10,29,02,24,8.90
2006,10,29,02,25,8.90
2006,10,29,02,26,8.90
2006,10,29,02,27,8.90
2006,10,29,02,28,8.80
2006,10,29,02,29,8.80
2006,10,29,02,30,8.80
2006,10,29,02,31,8.80
2006,10,29,02,32,8.80
2006,10,29,02,33,8.80
2006,10,29,02,34,8.70
2006,10,29,02,35,8.70
2006,10,29,02,36,8.70
2006,10,29,02,37,8.70
2006,10,29,02,38,8.70
2006,10,29,02,39,8.70
2006,10,29,02,40,8.70
2006,10,29,02,41,8.70
2006,10,29,02,42,8.70
2006,10,29,02,43,8.70
2006,10,29,02,44,8.60
2006,10,29,02,45,8.60
2006,10,29,02,46,8.60
2006,10,29,02,47,8.60
2006,10,29,02,48,8.60
2006,10,29,02,49,8.50
2006,10,29,02,50,8.50
2006,10,29,02,51,8.50
2006,10,29,02,52,8.50
2006,10,29,02,53,8.40
2006,10,29,02,54,8.50
2006,10,29,02,55,8.50
2006,10,29,02,56,8.50
2006,10,29,02,57,8.50
2006,10,29,02,58,8.50
2006,10,29,02,59,8.50
2006,10,29,03,00,8.50
2006,10,29,03,01,8.50
2006,10,29,03,02,8.50
2006,10,29,03,03,8.50
2006,10,29,03,04,8.50
2006,10,29,03,05,8.40
2006,10,29,03,06,8.40
2006,10,29,03,07,8.40
2006,10,29,03,08,8.30
2006,10,29,03,09,8.30
2006,10,29,03,10,8.20
2006,10,29,03,11,8.20
2006,10,29,03,12,8.20
2006,10,29,03,13,8.20
2006,10,29,03,14,8.10
2006,10,29,03,15,8.10
2006,10,29,03,16,8.00
2006,10,29,03,17,8.00
2006,10,29,03,18,8.00
2006,10,29,03,19,7.90
2006,10,29,03,20,7.90
2006,10,29,03,21,7.90
2006,10,29,03,22,7.90
2006,10,29,03,23,7.90
2006,10,29,03,24,7.90
2006,10,29,03,25,7.90
2006,10,29,03,26,7.80
2006,10,29,03,27,7.80
2006,10,29,03,28,7.80
2006,10,29,03,29,7.80
2006,10,29,03,30,7.80
2006,10,29,03,31,7.80
2006,10,29,03,32,7.80
2006,10,29,03,33,7.80
2006,10,29,03,34,7.80
2006,10,29,03,35,7.80
2006,10,29,03,36,7.80
2006,10,29,03,37,7.70
2006,10,29,03,38,7.70
2006,10,29,03,39,7.60
2006,10,29,03,40,7.60
2006,10,29,03,41,7.60
2006,10,29,03,42,7.50
2006,10,29,03,43,7.50
2006,10,29,03,44,7.40
2006,10,29,03,45,7.40
2006,10,29,03,46,7.30
2006,10,29,03,47,7.30
2006,10,29,03,48,7.20
2006,10,29,03,49,7.20
2006,10,29,03,50,7.20
2006,10,29,03,51,7.20
2006,10,29,03,52,7.20
2006,10,29,03,53,7.20
2006,10,29,03,54,7.20
2006,10,29,03,55,7.20
2006,10,29,03,56,7.20
2006,10,29,03,57,7.20
2006,10,29,03,58,7.20
2006,10,29,03,59,7.20
2006,10,29,04,00,7.10
2006,10,29,04,01,7.10
2006,10,29,04,02,7.20
2006,10,29,04,03,7.20
2006,10,29,04,04,7.20
2006,10,29,04,05,7.20
2006,10,29,04,06,7.20
2006,10,29,04,07,7.20
2006,10,29,04,08,7.20
2006,10,29,04,09,7.20
2006,10,29,04,10,7.20
2006,10,29,04,11,7.20
2006,10,29,04,12,7.30
2006,10,29,04,13,7.30
2006,10,29,04,14,7.30
2006,10,29,04,15,7.30
2006,10,29,04,16,7.30
2006,10,29,04,17,7.40
2006,10,29,04,18,7.40
2006,10,29,04,19,7.40
2006,10,29,04,20,7.50
2006,10,29,04,21,7.60
2006,10,29,04,22,7.70
2006,10,29,04,23,7.80
2006,10,29,04,24,7.90
2006,10,29,04,25,8.00
2006,10,29,04,26,8.00
2006,10,29,04,27,8.10
2006,10,29,04,28,8.10
2006,10,29,04,29,8.10
2006,10,29,04,30,8.10
2006,10,29,04,31,8.10
2006,10,29,04,32,8.10
2006,10,29,04,33,8.10
2006,10,29,04,34,8.10
2006,10,29,04,35,8.00
2006,10,29,04,36,8.00
2006,10,29,04,37,8.00
2006,10,29,04,38,8.00
2006,10,29,04,39,8.00
2006,10,29,04,40,8.00
2006,10,29,04,41,8.00
2006,10,29,04,42,8.00
2006,10,29,04,43,7.90
2006,10,29,04,44,7.90
2006,10,29,04,45,7.90
2006,10,29,04,46,7.90
2006,10,29,04,47,7.90
2006,10,29,04,48,7.90
2006,10,29,04,49,7.90
2006,10,29,04,50,7.90
2006,10,29,04,51,7.90
2006,10,29,04,52,7.90
2006,10,29,04,53,7.90
2006,10,29,04,54,7.90
2006,10,29,04,55,7.90
2006,10,29,04,56,7.90
2006,10,29,04,57,7.90
2006,10,29,04,58,7.90
2006,10,29,04,59,7.90
2006,10,29,05,00,7.90
2006,10,29,05,01,7.90
2006,10,29,05,02,7.90
2006,10,29,05,03,7.90
2006,10,29,05,04,7.90
2006,10,29,05,05,7.90
2006,10,29,05,06,7.90
2006,10,29,05,07,7.90
2006,10,29,05,08,7.90
2006,10,29,05,09,7.90
2006,10,29,05,10,7.90
2006,10,29,05,11,7.90
2006,10,29,05,12,7.90
2006,10,29,05,13,7.80
2006,10,29,05,14,7.80
2006,10,29,05,15,7.90
2006,10,29,05,16,7.90
2006,10,29,05,17,7.90
2006,10,29,05,18,7.80
2006,10,29,05,19,7.80
2006,10,29,05,20,7.80
2006,10,29,05,21,7.80
2006,10,29,05,22,7.80
2006,10,29,05,23,7.80
2006,10,29,05,24,7.70
2006,10,29,05,25,7.70
2006,10,29,05,26,7.60
2006,10,29,05,27,7.60
2006,10,29,05,28,7.60
2006,10,29,05,29,7.50
2006,10,29,05,30,7.50
2006,10,29,05,31,7.50
2006,10,29,05,32,7.50
2006,10,29,05,33,7.50
2006,10,29,05,34,7.50
2006,10,29,05,35,7.50
2006,10,29,05,36,7.40
2006,10,29,05,37,7.40
2006,10,29,05,38,7.40
2006,10,29,05,39,7.40
2006,10,29,05,40,7.40
2006,10,29,05,41,7.40
2006,10,29,05,42,7.40
2006,10,29,05,43,7.40
2006,10,29,05,44,7.40
2006,10,29,05,45,7.40
2006,10,29,05,46,7.40
2006,10,29,05,47,7.50
2006,10,29,05,48,7.50
2006,10,29,05,49,7.50
2006,10,29,05,50,7.50
2006,10,29,05,51,7.60
2006,10,29,05,52,7.60
2006,10,29,05,53,7.60
2006,10,29,05,54,7.70
2006,10,29,05,55,7.70
2006,10,29,05,56,7.70
2006,10,29,05,57,7.70
2006,10,29,05,58,7.70
2006,10,29,05,59,7.70
2006,10,29,06,00,7.70
2006,10,29,06,01,7.70
2006,10,29,06,02,7.70
2006,10,29,06,03,7.70
2006,10,29,06,04,7.80
2006,10,29,06,05,7.80
2006,10,29,06,06,7.80
2006,10,29,06,07,7.80
2006,10,29,06,08,7.80
2006,10,29,06,09,7.80
2006,10,29,06,10,7.80
2006,10,29,06,11,7.80
2006,10,29,06,12,7.70
2006,10,29,06,13,7.70
2006,10,29,06,14,7.70
2006,10,29,06,15,7.70
2006,10,29,06,16,7.70
2006,10,29,06,17,7.70
2006,10,29,06,18,7.70
2006,10,29,06,19,7.70
2006,10,29,06,20,7.70
2006,10,29,06,21,7.70
2006,10,29,06,22,7.80
2006,10,29,06,23,7.80
2006,10,29,06,24,7.80
2006,10,29,06,25,7.80
2006,10,29,06,26,7.80
2006,10,29,06,27,7.70
2006,10,29,06,28,7.70
2006,10,29,06,29,7.60
2006,10,29,06,30,7.60
2006,10,29,06,31,7.50
2006,10,29,06,32,7.50
2006,10,29,06,33,7.40
2006,10,29,06,34,7.30
2006,10,29,06,35,7.20
2006,10,29,06,36,7.10
2006,10,29,06,37,7.10
2006,10,29,06,38,7.00
2006,10,29,06,39,7.00
2006,10,29,06,40,7.00
2006,10,29,06,41,6.90
2006,10,29,06,42,6.90
2006,10,29,06,43,6.90
2006,10,29,06,44,6.90
2006,10,29,06,45,6.80
2006,10,29,06,46,6.80
2006,10,29,06,47,6.80
2006,10,29,06,48,6.80
2006,10,29,06,49,6.80
2006,10,29,06,50,6.80
2006,10,29,06,51,6.80
2006,10,29,06,52,6.70
2006,10,29,06,53,6.70
2006,10,29,06,54,6.70
2006,10,29,06,55,6.70
2006,10,29,06,56,6.60
2006,10,29,06,57,6.60
2006,10,29,06,58,6.60
2006,10,29,06,59,6.60
2006,10,29,07,00,6.60
2006,10,29,07,01,6.60
2006,10,29,07,02,6.40
2006,10,29,07,03,6.40
2006,10,29,07,04,6.40
2006,10,29,07,05,6.30
2006,10,29,07,06,6.30
2006,10,29,07,07,6.20
2006,10,29,07,08,6.20
2006,10,29,07,09,6.20
2006,10,29,07,10,6.10
2006,10,29,07,11,6.10
2006,10,29,07,12,6.10
2006,10,29,07,13,6.10
2006,10,29,07,14,6.10
2006,10,29,07,15,6.10
2006,10,29,07,16,6.10
2006,10,29,07,17,6.20
2006,10,29,07,18,6.20
2006,10,29,07,19,6.20
2006,10,29,07,20,6.20
2006,10,29,07,21,6.20
2006,10,29,07,22,6.20
2006,10,29,07,23,6.20
2006,10,29,07,24,6.20
2006,10,29,07,25,6.20
2006,10,29,07,26,6.20
2006,10,29,07,27,6.10
2006,10,29,07,28,6.10
2006,10,29,07,29,6.00
2006,10,29,07,30,5.90
2006,10,29,07,31,5.90
2006,10,29,07,32,6.00
2006,10,29,07,33,6.00
2006,10,29,07,34,6.10
2006,10,29,07,35,6.20
2006,10,29,07,36,6.20
2006,10,29,07,37,6.20
2006,10,29,07,38,6.20
2006,10,29,07,39,6.20
2006,10,29,07,40,6.30
2006,10,29,07,41,6.30
2006,10,29,07,42,6.40
2006,10,29,07,43,6.40
2006,10,29,07,44,6.40
2006,10,29,07,45,6.50
2006,10,29,07,46,6.60
2006,10,29,07,47,6.60
2006,10,29,07,48,6.70
2006,10,29,07,49,6.70
2006,10,29,07,50,6.70
2006,10,29,07,51,6.70
2006,10,29,07,52,6.70
2006,10,29,07,53,6.70
2006,10,29,07,54,6.70
2006,10,29,07,55,6.60
2006,10,29,07,56,6.60
2006,10,29,07,57,6.60
2006,10,29,07,58,6.60
2006,10,29,07,59,6.60
2006,10,29,08,00,6.60
2006,10,29,08,01,6.50
2006,10,29,08,02,6.40
2006,10,29,08,03,6.40
2006,10,29,08,04,6.40
2006,10,29,08,05,6.40
2006,10,29,08,06,6.40
2006,10,29,08,07,6.50
2006,10,29,08,08,6.60
2006,10,29,08,09,6.60
2006,10,29,08,10,6.60
2006,10,29,08,11,6.70
2006,10,29,08,12,6.70
2006,10,29,08,13,6.70
2006,10,29,08,14,6.80
2006,10,29,08,15,6.80
2006,10,29,08,16,6.80
2006,10,29,08,17,6.80
2006,10,29,08,18,6.90
2006,10,29,08,19,7.00
2006,10,29,08,20,7.10
2006,10,29,08,21,7.10
2006,10,29,08,22,7.20
2006,10,29,08,23,7.30
2006,10,29,08,24,7.30
2006,10,29,08,25,7.30
2006,10,29,08,26,7.30
2006,10,29,08,27,7.40
2006,10,29,08,28,7.40
2006,10,29,08,29,7.50
2006,10,29,08,30,7.50
2006,10,29,08,31,7.60
2006,10,29,08,32,7.60
2006,10,29,08,33,7.70
2006,10,29,08,34,7.70
2006,10,29,08,35,7.80
2006,10,29,08,36,7.80
2006,10,29,08,37,7.80
2006,10,29,08,38,7.90
2006,10,29,08,39,8.00
2006,10,29,08,40,8.10
2006,10,29,08,41,8.10
2006,10,29,08,42,8.20
2006,10,29,08,43,8.20
2006,10,29,08,44,8.20
2006,10,29,08,45,8.30
2006,10,29,08,46,8.30
2006,10,29,08,47,8.40
2006,10,29,08,48,8.40
2006,10,29,08,49,8.50
2006,10,29,08,50,8.50
2006,10,29,08,51,8.60
2006,10,29,08,52,8.70
2006,10,29,08,53,8.70
2006,10,29,08,54,8.70
2006,10,29,08,55,8.70
2006,10,29,08,56,8.70
2006,10,29,08,57,8.70
2006,10,29,08,58,8.80
2006,10,29,08,59,8.80
2006,10,29,09,00,8.80
2006,10,29,09,01,8.90
2006,10,29,09,02,8.90
2006,10,29,09,03,9.00
2006,10,29,09,04,9.00
2006,10,29,09,05,9.00
2006,10,29,09,06,9.00
2006,10,29,09,07,9.00
2006,10,29,09,08,9.20
2006,10,29,09,09,9.20
2006,10,29,09,10,9.30
2006,10,29,09,11,9.30
2006,10,29,09,12,9.40
2006,10,29,09,13,9.40
2006,10,29,09,14,9.50
2006,10,29,09,15,9.50
2006,10,29,09,16,9.50
2006,10,29,09,17,9.50
2006,10,29,09,18,9.50
2006,10,29,09,19,9.50
2006,10,29,09,20,9.50
2006,10,29,09,21,9.50
2006,10,29,09,22,9.50
2006,10,29,09,23,9.50
2006,10,29,09,24,9.50
2006,10,29,09,25,9.50
2006,10,29,09,26,9.50
2006,10,29,09,27,9.50
2006,10,29,09,28,9.50
2006,10,29,09,29,9.60
2006,10,29,09,30,9.50
2006,10,29,09,31,9.50
2006,10,29,09,32,9.50
2006,10,29,09,33,9.50
2006,10,29,09,34,9.60
2006,10,29,09,35,9.70
2006,10,29,09,36,9.70
2006,10,29,09,37,9.70
2006,10,29,09,38,9.70
2006,10,29,09,39,9.70
2006,10,29,09,40,9.80
2006,10,29,09,41,9.80
2006,10,29,09,42,9.80
2006,10,29,09,43,9.90
2006,10,29,09,44,9.90
2006,10,29,09,45,9.90
2006,10,29,09,46,9.90
2006,10,29,09,47,9.90
2006,10,29,09,48,9.90
2006,10,29,09,49,9.80
2006,10,29,09,50,9.80
2006,10,29,09,51,9.80
2006,10,29,09,52,9.80
2006,10,29,09,53,9.90
2006,10,29,09,54,9.80
2006,10,29,09,55,9.80
2006,10,29,09,56,9.80
2006,10,29,09,57,9.80
2006,10,29,09,58,9.70
2006,10,29,09,59,9.70
2006,10,29,10,00,9.60
2006,10,29,10,01,9.60
2006,10,29,10,02,9.60
2006,10,29,10,03,9.60
2006,10,29,10,04,9.60
2006,10,29,10,05,9.60
2006,10,29,10,06,9.50
2006,10,29,10,07,9.50
2006,10,29,10,08,9.40
2006,10,29,10,09,9.40
2006,10,29,10,10,9.40
2006,10,29,10,11,9.30
2006,10,29,10,12,9.30
2006,10,29,10,13,9.20
2006,10,29,10,14,9.20
2006,10,29,10,15,9.20
2006,10,29,10,16,9.20
2006,10,29,10,17,9.20
2006,10,29,10,18,9.30
2006,10,29,10,19,9.30
2006,10,29,10,20,9.30
2006,10,29,10,21,9.30
2006,10,29,10,22,9.40
2006,10,29,10,23,9.40
2006,10,29,10,24,9.50
2006,10,29,10,25,9.60
2006,10,29,10,26,9.60
2006,10,29,10,27,9.70
2006,10,29,10,28,9.70
2006,10,29,10,29,9.70
2006,10,29,10,30,9.80
2006,10,29,10,31,9.80
2006,10,29,10,32,9.80
2006,10,29,10,33,9.70
2006,10,29,10,34,9.70
2006,10,29,10,35,9.70
2006,10,29,10,36,9.70
2006,10,29,10,37,9.60
2006,10,29,10,38,9.50
2006,10,29,10,39,9.40
2006,10,29,10,40,9.30
2006,10,29,10,41,9.20
2006,10,29,10,42,9.10
2006,10,29,10,43,9.00
2006,10,29,10,44,9.00
2006,10,29,10,45,8.90
2006,10,29,10,46,8.90
2006,10,29,10,47,8.90
2006,10,29,10,48,8.90
2006,10,29,10,49,8.90
2006,10,29,10,50,8.90
2006,10,29,10,51,8.90
2006,10,29,10,52,8.80
2006,10,29,10,53,8.80
2006,10,29,10,54,8.80
2006,10,29,10,55,8.80
2006,10,29,10,56,8.80
2006,10,29,10,57,8.80
2006,10,29,10,58,8.80
2006,10,29,10,59,8.80
2006,10,29,11,00,8.80
2006,10,29,11,01,8.80
2006,10,29,11,02,8.80
2006,10,29,11,03,8.80
2006,10,29,11,04,8.80
2006,10,29,11,05,8.80
2006,10,29,11,06,8.80
2006,10,29,11,07,8.80
2006,10,29,11,08,8.70
2006,10,29,11,09,8.70
2006,10,29,11,10,8.70
2006,10,29,11,11,8.70
2006,10,29,11,12,8.70
2006,10,29,11,13,8.70
2006,10,29,11,14,8.70
2006,10,29,11,15,8.70
2006,10,29,11,16,8.70
2006,10,29,11,17,8.70
2006,10,29,11,18,8.70
2006,10,29,11,19,8.70
2006,10,29,11,20,8.70
2006,10,29,11,21,8.70
2006,10,29,11,22,8.70
2006,10,29,11,23,8.70
2006,10,29,11,24,8.70
2006,10,29,11,25,8.70
2006,10,29,11,26,8.70
2006,10,29,11,27,8.70
2006,10,29,11,28,8.70
2006,10,29,11,29,8.70
2006,10,29,11,30,8.70
2006,10,29,11,31,8.70
2006,10,29,11,32,8.80
2006,10,29,11,33,8.80
2006,10,29,11,34,8.90
2006,10,29,11,35,8.90
2006,10,29,11,36,8.90
2006,10,29,11,37,9.00
2006,10,29,11,38,9.10
2006,10,29,11,39,9.20
2006,10,29,11,40,9.20
2006,10,29,11,41,9.20
2006,10,29,11,42,9.30
2006,10,29,11,43,9.20
2006,10,29,11,44,9.30
2006,10,29,11,45,9.30
2006,10,29,11,46,9.30
2006,10,29,11,47,9.30
2006,10,29,11,48,9.20
2006,10,29,11,49,9.10
2006,10,29,11,50,8.90
2006,10,29,11,51,8.80
2006,10,29,11,52,8.70
2006,10,29,11,53,8.60
2006,10,29,11,54,8.40
2006,10,29,11,55,8.30
2006,10,29,11,56,8.20
2006,10,29,11,57,8.00
2006,10,29,11,58,8.00
2006,10,29,11,59,7.90
2006,10,29,12,00,7.90
2006,10,29,12,01,7.80
2006,10,29,12,02,7.80
2006,10,29,12,03,7.80
2006,10,29,12,04,7.80
2006,10,29,12,05,7.80
2006,10,29,12,06,7.80
2006,10,29,12,07,7.80
2006,10,29,12,08,7.80
2006,10,29,12,09,7.80
2006,10,29,12,10,7.90
2006,10,29,12,11,7.90
2006,10,29,12,12,8.00
2006,10,29,12,13,8.10
2006,10,29,12,14,8.20
2006,10,29,12,15,8.30
2006,10,29,12,16,8.40
2006,10,29,12,17,8.50
2006,10,29,12,18,8.50
2006,10,29,12,19,8.60
2006,10,29,12,20,8.70
2006,10,29,12,21,8.70
2006,10,29,12,22,8.70
2006,10,29,12,23,8.70
2006,10,29,12,24,8.70
2006,10,29,12,25,8.80
2006,10,29,12,26,8.80
2006,10,29,12,27,8.80
2006,10,29,12,28,8.90
2006,10,29,12,29,8.90
2006,10,29,12,30,9.00
2006,10,29,12,31,9.00
2006,10,29,12,32,9.10
2006,10,29,12,33,9.10
2006,10,29,12,34,9.10
2006,10,29,12,35,9.10
2006,10,29,12,36,9.10
2006,10,29,12,37,9.10
2006,10,29,12,38,9.20
2006,10,29,12,39,9.20
2006,10,29,12,40,9.20
2006,10,29,12,41,9.20
2006,10,29,12,42,9.20
2006,10,29,12,43,9.20
2006,10,29,12,44,9.20
2006,10,29,12,45,9.20
2006,10,29,12,46,9.20
2006,10,29,12,47,9.20
2006,10,29,12,48,9.20
2006,10,29,12,49,9.20
2006,10,29,12,50,9.20
2006,10,29,12,51,9.20
2006,10,29,12,52,9.20
2006,10,29,12,53,9.30
2006,10,29,12,54,9.30
2006,10,29,12,55,9.40
2006,10,29,12,56,9.40
2006,10,29,12,57,9.40
2006,10,29,12,58,9.40
2006,10,29,12,59,9.40
2006,10,29,13,00,9.40
2006,10,29,13,01,9.30
2006,10,29,13,02,9.30
2006,10,29,13,03,9.30
2006,10,29,13,04,9.30
2006,10,29,13,05,9.30
2006,10,29,13,06,9.30
2006,10,29,13,07,9.40
2006,10,29,13,08,9.40
2006,10,29,13,09,9.40
2006,10,29,13,10,9.50
2006,10,29,13,11,9.60
2006,10,29,13,12,9.60
2006,10,29,13,13,9.60
2006,10,29,13,14,9.70
2006,10,29,13,15,9.70
2006,10,29,13,16,9.70
2006,10,29,13,17,9.80
2006,10,29,13,18,9.90
2006,10,29,13,19,9.90
2006,10,29,13,20,9.90
2006,10,29,13,21,9.90
2006,10,29,13,22,9.90
2006,10,29,13,23,9.90
2006,10,29,13,24,10.00
2006,10,29,13,25,10.10
2006,10,29,13,26,10.00
2006,10,29,13,27,9.90
2006,10,29,13,28,9.90
2006,10,29,13,29,10.00
2006,10,29,13,30,10.10
2006,10,29,13,31,10.10
2006,10,29,13,32,10.10
2006,10,29,13,33,10.10
2006,10,29,13,34,10.10
2006,10,29,13,35,10.10
2006,10,29,13,36,10.10
2006,10,29,13,37,10.10
2006,10,29,13,38,10.10
2006,10,29,13,39,10.10
2006,10,29,13,40,10.00
2006,10,29,13,41,9.90
2006,10,29,13,42,9.90
2006,10,29,13,43,9.80
2006,10,29,13,44,9.80
2006,10,29,13,45,9.70
2006,10,29,13,46,9.70
2006,10,29,13,47,9.70
2006,10,29,13,48,9.70
2006,10,29,13,49,9.60
2006,10,29,13,50,9.60
2006,10,29,13,51,9.60
2006,10,29,13,52,9.70
2006,10,29,13,53,9.70
2006,10,29,13,54,9.70
2006,10,29,13,55,9.70
2006,10,29,13,56,9.70
2006,10,29,13,57,9.70
2006,10,29,13,58,9.70
2006,10,29,13,59,9.70
2006,10,29,14,00,9.70
2006,10,29,14,01,9.70
2006,10,29,14,02,9.70
2006,10,29,14,03,9.70
2006,10,29,14,04,9.70
2006,10,29,14,05,9.70
2006,10,29,14,06,9.70
2006,10,29,14,07,9.70
2006,10,29,14,08,9.70
2006,10,29,14,09,9.70
2006,10,29,14,10,9.70
2006,10,29,14,11,9.70
2006,10,29,14,12,9.70
2006,10,29,14,13,9.80
2006,10,29,14,14,9.80
2006,10,29,14,15,9.90
2006,10,29,14,16,9.90
2006,10,29,14,17,9.90
2006,10,29,14,18,10.00
2006,10,29,14,19,10.10
2006,10,29,14,20,10.10
2006,10,29,14,21,10.10
2006,10,29,14,22,10.10
2006,10,29,14,23,10.10
2006,10,29,14,24,10.10
2006,10,29,14,25,9.90
2006,10,29,14,26,9.90
2006,10,29,14,27,9.90
2006,10,29,14,28,9.80
2006,10,29,14,29,9.70
2006,10,29,14,30,9.70
2006,10,29,14,31,9.70
2006,10,29,14,32,9.70
2006,10,29,14,33,9.80
2006,10,29,14,34,9.80
2006,10,29,14,35,9.90
2006,10,29,14,36,9.90
2006,10,29,14,37,9.90
2006,10,29,14,38,10.00
2006,10,29,14,39,10.10
2006,10,29,14,40,10.10
2006,10,29,14,41,10.20
2006,10,29,14,42,10.20
2006,10,29,14,43,10.20
2006,10,29,14,44,10.20
2006,10,29,14,45,10.20
2006,10,29,14,46,10.10
2006,10,29,14,47,10.10
2006,10,29,14,48,10.10
2006,10,29,14,49,10.10
2006,10,29,14,50,10.10
2006,10,29,14,51,10.00
2006,10,29,14,52,9.90
2006,10,29,14,53,9.90
2006,10,29,14,54,9.90
2006,10,29,14,55,9.90
2006,10,29,14,56,9.90
2006,10,29,14,57,9.90
2006,10,29,14,58,9.90
2006,10,29,14,59,9.90
2006,10,29,15,00,9.90
2006,10,29,15,01,9.90
2006,10,29,15,02,9.90
2006,10,29,15,03,9.90
2006,10,29,15,04,9.90
2006,10,29,15,05,9.90
2006,10,29,15,06,9.90
2006,10,29,15,07,9.90
2006,10,29,15,08,9.90
2006,10,29,15,09,9.90
2006,10,29,15,10,9.90
2006,10,29,15,11,9.90
2006,10,29,15,12,9.90
2006,10,29,15,13,9.80
2006,10,29,15,14,9.80
2006,10,29,15,15,9.80
2006,10,29,15,16,9.80
2006,10,29,15,17,9.80
2006,10,29,15,18,9.80
2006,10,29,15,19,9.70
2006,10,29,15,20,9.70
2006,10,29,15,21,9.70
2006,10,29,15,22,9.70
2006,10,29,15,23,9.70
2006,10,29,15,24,9.70
2006,10,29,15,25,9.70
2006,10,29,15,26,9.70
2006,10,29,15,27,9.70
2006,10,29,15,28,9.80
2006,10,29,15,29,9.80
2006,10,29,15,30,9.80
2006,10,29,15,31,9.80
2006,10,29,15,32,9.70
2006,10,29,15,33,9.70
2006,10,29,15,34,9.70
2006,10,29,15,35,9.70
2006,10,29,15,36,9.70
2006,10,29,15,37,9.70
2006,10,29,15,38,9.70
2006,10,29,15,39,9.70
2006,10,29,15,40,9.70
2006,10,29,15,41,9.70
2006,10,29,15,42,9.70
2006,10,29,15,43,9.70
2006,10,29,15,44,9.70
2006,10,29,15,45,9.70
2006,10,29,15,46,9.70
2006,10,29,15,47,9.70
2006,10,29,15,48,9.70
2006,10,29,15,49,9.70
2006,10,29,15,50,9.70
2006,10,29,15,51,9.70
2006,10,29,15,52,9.60
2006,10,29,15,53,9.60
2006,10,29,15,54,9.60
2006,10,29,15,55,9.60
2006,10,29,15,56,9.60
2006,10,29,15,57,9.60
2006,10,29,15,58,9.60
2006,10,29,15,59,9.60
2006,10,29,16,00,9.60
2006,10,29,16,01,9.50
2006,10,29,16,02,9.50
2006,10,29,16,03,9.50
2006,10,29,16,04,9.40
2006,10,29,16,05,9.40
2006,10,29,16,06,9.40
2006,10,29,16,07,9.40
2006,10,29,16,08,9.30
2006,10,29,16,09,9.30
2006,10,29,16,10,9.30
2006,10,29,16,11,9.20
2006,10,29,16,12,9.20
2006,10,29,16,13,9.20
2006,10,29,16,14,9.20
2006,10,29,16,15,9.20
2006,10,29,16,16,9.20
2006,10,29,16,17,9.10
2006,10,29,16,18,9.10
2006,10,29,16,19,9.10
2006,10,29,16,20,9.00
2006,10,29,16,21,9.00
2006,10,29,16,22,8.90
2006,10,29,16,23,8.90
2006,10,29,16,24,8.90
2006,10,29,16,25,8.90
2006,10,29,16,26,8.90
2006,10,29,16,27,8.90
2006,10,29,16,28,8.90
2006,10,29,16,29,8.90
2006,10,29,16,30,8.90
2006,10,29,16,31,8.90
2006,10,29,16,32,8.90
2006,10,29,16,33,8.90
2006,10,29,16,34,8.80
2006,10,29,16,35,8.80
2006,10,29,16,36,8.80
2006,10,29,16,37,8.80
2006,10,29,16,38,8.80
2006,10,29,16,39,8.70
2006,10,29,16,40,8.70
2006,10,29,16,41,8.70
2006,10,29,16,42,8.70
2006,10,29,16,43,8.70
2006,10,29,16,44,8.70
2006,10,29,16,45,8.70
2006,10,29,16,46,8.60
2006,10,29,16,47,8.60
2006,10,29,16,48,8.60
2006,10,29,16,49,8.60
2006,10,29,16,50,8.50
2006,10,29,16,51,8.50
2006,10,29,16,52,8.40
2006,10,29,16,53,8.40
2006,10,29,16,54,8.40
2006,10,29,16,55,8.30
2006,10,29,16,56,8.30
2006,10,29,16,57,8.20
2006,10,29,16,58,8.20
2006,10,29,16,59,8.20
2006,10,29,17,00,8.10
2006,10,29,17,01,8.10
2006,10,29,17,02,8.00
2006,10,29,17,03,8.00
2006,10,29,17,04,8.00
2006,10,29,17,05,7.90
2006,10,29,17,06,7.90
2006,10,29,17,07,7.90
2006,10,29,17,08,7.90
2006,10,29,17,09,7.80
2006,10,29,17,10,7.80
2006,10,29,17,11,7.80
2006,10,29,17,12,7.80
2006,10,29,17,13,7.80
2006,10,29,17,14,7.80
2006,10,29,17,15,7.80
2006,10,29,17,16,7.80
2006,10,29,17,17,7.80
2006,10,29,17,18,7.80
2006,10,29,17,19,7.80
2006,10,29,17,20,7.80
2006,10,29,17,21,7.80
2006,10,29,17,22,7.80
2006,10,29,17,23,7.80
2006,10,29,17,24,7.80
2006,10,29,17,25,7.70
2006,10,29,17,26,7.70
2006,10,29,17,27,7.70
2006,10,29,17,28,7.70
2006,10,29,17,29,7.70
2006,10,29,17,30,7.70
2006,10,29,17,31,7.70
2006,10,29,17,32,7.70
2006,10,29,17,33,7.70
2006,10,29,17,34,7.70
2006,10,29,17,35,7.70
2006,10,29,17,36,7.60
2006,10,29,17,37,7.60
2006,10,29,17,38,7.50
2006,10,29,17,39,7.50
2006,10,29,17,40,7.50
2006,10,29,17,41,7.40
2006,10,29,17,42,7.40
2006,10,29,17,43,7.40
2006,10,29,17,44,7.40
2006,10,29,17,45,7.40
2006,10,29,17,46,7.40
2006,10,29,17,47,7.40
2006,10,29,17,48,7.40
2006,10,29,17,49,7.40
2006,10,29,17,50,7.30
2006,10,29,17,51,7.30
2006,10,29,17,52,7.30
2006,10,29,17,53,7.30
2006,10,29,17,54,7.30
2006,10,29,17,55,7.30
2006,10,29,17,56,7.30
2006,10,29,17,57,7.30
2006,10,29,17,58,7.20
2006,10,29,17,59,7.20
2006,10,29,18,00,7.20